Weather reports worldwide

Advertisment
Gelbelsee, Germany (10777): temperature & dewpoint: 12.02.2020 10:00:00 - 18.02.2020 10:00:00 (CET)Gelbelsee, Germany (10777): temperature 5cm & temperature -5cm: 12.02.2020 10:00:00 - 18.02.2020 10:00:00 (CET)Gelbelsee, Germany (10777): temperature -20cm & temperature -100cm: 12.02.2020 10:00:00 - 18.02.2020 10:00:00 (CET)Gelbelsee, Germany (10777): wind speed & gusts: 12.02.2020 10:00:00 - 18.02.2020 10:00:00 (CET)Gelbelsee, Germany (10777): wind direction: 12.02.2020 10:00:00 - 18.02.2020 10:00:00 (CET)Gelbelsee, Germany (10777): reduced air pressure: 12.02.2020 10:00:00 - 18.02.2020 10:00:00 (CET)Gelbelsee, Germany (10777): visibility: 12.02.2020 10:00:00 - 18.02.2020 10:00:00 (CET)Gelbelsee, Germany (10777): sunshine duration: 12.02.2020 10:00:00 - 18.02.2020 10:00:00 (CET)Gelbelsee, Germany (10777): precipitation: 12.02.2020 10:00:00 - 18.02.2020 10:00:00 (CET)
Date & Time tt [°C] td [°C] tt 5cm [°C] tt -5cm [°C] tt -20cm [°C] tt -100cm [°C] ff [km/h] ff [kn] fx [km/h] fx [kn] dd ppp [hPa] vv [km] sd [min] rr [mm]
18.02.2020 10:00:00 - - - - - - - - - - - - - - -
18.02.2020 09:00:00 3,4 1,7 3,0 3,0 4,1 4,4 11 6 31 17 WSW 1027,7 66 1 0,0
18.02.2020 08:00:00 2,9 1,7 2,3 2,8 4,2 4,4 13 7 32 17 WSW 1027,2 53 0 0,0
18.02.2020 07:00:00 3,2 1,9 2,1 3,0 4,3 4,4 14 8 29 16 SW 1026,6 63 0 0,0
18.02.2020 06:00:00 3,4 2,4 2,7 3,1 4,4 4,4 16 9 29 16 SW 1026,3 52 0 0,0
18.02.2020 05:00:00 3,5 2,6 2,5 3,3 4,5 4,4 14 8 29 16 SW 1025,9 61 0 0,0
18.02.2020 04:00:00 3,9 2,3 2,9 3,3 4,7 4,3 17 9 32 17 WSW 1025,2 61 0 0,0
18.02.2020 03:00:00 3,8 2,6 2,3 3,8 4,8 4,3 13 7 32 18 W 1025,1 74 0 0,0
18.02.2020 02:00:00 4,1 2,9 3,3 4,4 4,8 4,3 21 12 40 21 W 1024,6 20 0 0,4
18.02.2020 01:00:00 5,3 4,2 4,4 4,6 4,9 4,3 16 8 32 18 WSW 1023,6 54 0 0,0
18.02.2020 00:00:00 5,4 4,9 4,6 4,6 5,0 4,3 14 8 23 12 WSW 1023,1 33 0 0,0
17.02.2020 23:00:00 5,4 4,8 4,5 4,7 5,0 4,3 11 6 21 11 WSW 1022,7 55 0 0,0
17.02.2020 22:00:00 5,4 4,6 4,5 5,0 5,1 4,3 15 8 25 14 WSW 1022,1 73 0 0,0
17.02.2020 21:00:00 5,4 4,5 4,6 5,4 5,1 4,3 12 7 25 13 WSW 1021,8 75 0 0,4
17.02.2020 20:00:00 6,0 5,3 5,5 5,8 5,1 4,3 13 7 24 13 NW 1020,9 18 0 0,8
17.02.2020 19:00:00 6,8 6,8 6,3 5,9 5,1 4,3 9 5 18 10 WSW 1020,1 10 0 0,2
17.02.2020 18:00:00 6,9 6,8 6,3 6,1 5,1 4,3 10 5 18 10 SW 1019,8 42 0 0,4
17.02.2020 17:00:00 7,1 7,0 6,6 6,3 5,0 4,3 9 5 16 9 SW 1019,5 27 0 1,2
17.02.2020 16:00:00 7,2 6,8 6,7 6,4 4,9 4,3 9 5 17 9 WSW 1019,2 21 0 1,2
17.02.2020 15:00:00 7,6 6,7 7,0 6,5 4,9 4,3 9 5 16 9 W 1019,0 18 0 0,8
17.02.2020 14:00:00 8,4 5,9 7,1 6,4 4,8 4,3 8 4 17 9 W 1018,8 8 0 0,0
17.02.2020 13:00:00 9,0 5,0 8,3 6,5 4,6 4,3 11 6 18 10 W 1018,7 75 0 0,0
17.02.2020 12:00:00 9,4 5,5 8,9 6,3 4,5 4,3 3 2 10 5 W 1018,7 71 0 0,0
17.02.2020 11:00:00 9,2 5,1 8,5 5,9 4,4 4,3 9 5 13 7 WNW 1018,6 75 0 0,0
17.02.2020 10:00:00 9,0 5,0 7,9 5,5 4,4 4,3 7 4 21 11 W 1018,8 75 0 0,0
17.02.2020 09:00:00 8,9 5,0 7,7 5,3 4,3 4,3 8 4 19 10 W 1019,1 75 0 0,0
17.02.2020 08:00:00 9,3 5,4 7,9 5,2 4,3 4,3 11 6 17 9 NW 1018,9 75 0 0,0
17.02.2020 07:00:00 9,7 5,9 8,2 5,0 4,3 4,3 10 5 28 15 WNW 1018,3 75 0 0,0
17.02.2020 06:00:00 9,7 2,4 8,2 4,5 4,3 4,3 12 7 27 15 W 1018,0 75 0 0,0
17.02.2020 05:00:00 10,3 1,5 8,0 4,4 4,3 4,3 14 8 27 15 SW 1016,3 75 0 0,0
17.02.2020 04:00:00 10,3 1,4 7,5 4,5 4,3 4,3 13 7 26 14 SSW 1015,7 75 0 0,0
17.02.2020 03:00:00 11,1 1,2 8,8 4,5 4,4 4,3 15 8 24 13 SW 1015,3 75 0 0,0
17.02.2020 02:00:00 10,8 1,0 8,0 4,5 4,4 4,3 12 6 22 12 SW 1015,4 68 0 0,0
17.02.2020 01:00:00 11,0 0,9 8,2 4,7 4,4 4,3 13 7 26 14 SSW 1015,2 68 0 0,0
17.02.2020 00:00:00 11,6 0,6 9,0 4,8 4,5 4,3 18 10 39 21 SW 1014,9 61 0 0,0
16.02.2020 23:00:00 11,4 0,5 8,7 4,8 4,5 4,3 15 8 25 13 SW 1014,6 75 0 0,0
16.02.2020 22:00:00 11,2 0,3 8,9 5,0 4,5 4,3 12 7 27 14 SSW 1014,6 64 0 0,0
16.02.2020 21:00:00 12,0 0,2 8,3 5,0 4,6 4,3 9 5 18 10 SSW 1014,3 70 0 0,0
16.02.2020 20:00:00 11,5 0,8 8,0 5,2 4,6 4,2 9 5 16 9 S 1015,0 71 0 0,0
16.02.2020 19:00:00 11,9 1,1 7,5 5,7 4,6 4,2 6 4 19 10 S 1015,2 58 0 0,0
16.02.2020 18:00:00 12,0 1,4 6,5 6,5 4,5 4,2 7 4 15 8 S 1015,3 55 0 0,0
16.02.2020 17:00:00 13,3 2,0 10,6 7,5 4,2 4,2 10 5 24 13 S 1014,8 75 28 0,0
16.02.2020 16:00:00 13,6 1,8 12,6 7,6 3,9 4,2 14 7 23 12 S 1015,0 73 3 0,0
16.02.2020 15:00:00 11,9 1,7 11,0 7,0 3,6 4,2 11 6 24 13 S 1016,4 63 0 0,0
16.02.2020 14:00:00 11,1 0,5 10,6 6,8 3,2 4,2 12 6 27 14 S 1017,3 75 19 0,0
16.02.2020 13:00:00 11,0 -0,3 10,8 6,2 2,9 4,2 11 6 20 11 SSW 1018,6 70 26 0,0
16.02.2020 12:00:00 9,3 -0,9 9,5 4,8 2,6 4,2 12 6 19 11 SSW 1019,9 70 10 0,0
16.02.2020 11:00:00 7,8 -0,4 7,5 3,7 2,5 4,2 8 4 14 7 S 1020,4 75 10 0,0
16.02.2020 10:00:00 5,3 -0,5 5,2 2,3 2,5 4,2 6 3 13 7 SE 1021,0 54 2 0,0
16.02.2020 09:00:00 3,6 -1,2 3,0 1,3 2,5 4,2 8 4 12 7 SE 1021,7 57 1 0,0
16.02.2020 08:00:00 2,7 -1,2 1,4 0,9 2,6 4,2 8 4 14 7 SE 1021,9 75 0 0,0
16.02.2020 07:00:00 2,4 -1,0 0,3 1,0 2,7 4,2 9 5 14 8 SE 1021,8 66 0 0,0
16.02.2020 06:00:00 2,5 -0,8 0,9 1,0 2,8 4,2 10 5 18 10 SSE 1021,7 57 0 0,0
16.02.2020 05:00:00 2,5 -0,4 0,8 1,3 2,9 4,2 11 6 17 9 SSE 1022,0 65 0 0,0
16.02.2020 04:00:00 4,7 -1,0 2,2 1,4 3,0 4,2 8 4 13 7 SSW 1021,9 71 0 0,0
16.02.2020 03:00:00 4,3 -0,6 1,2 1,7 3,1 4,2 7 4 15 8 S 1022,8 59 0 0,0
16.02.2020 02:00:00 4,2 0,5 2,0 1,8 3,2 4,2 8 4 17 9 S 1023,2 56 0 0,0
16.02.2020 01:00:00 5,1 1,0 1,8 1,7 3,4 4,2 10 5 18 10 SSW 1022,8 55 0 0,0
16.02.2020 00:00:00 3,6 1,4 1,4 1,6 3,6 4,2 8 4 13 7 S 1023,2 39 0 0,0
15.02.2020 23:00:00 3,8 1,6 1,1 1,6 3,8 4,2 9 5 12 6 SSE 1023,2 37 0 0,0
15.02.2020 22:00:00 3,9 1,6 -0,3 2,0 4,0 4,2 6 3 15 8 SSE 1023,7 42 0 0,0
15.02.2020 21:00:00 4,0 1,7 0,7 2,5 4,3 4,2 9 5 14 8 SSE 1023,2 37 0 0,0
15.02.2020 20:00:00 5,0 2,1 0,7 3,2 4,5 4,2 7 4 11 6 S 1023,5 47 0 0,0
15.02.2020 19:00:00 5,5 2,1 2,1 4,2 4,6 4,2 8 5 16 8 SSE 1023,5 54 0 0,0
15.02.2020 18:00:00 6,9 2,0 3,9 5,6 4,6 4,2 10 5 19 10 SSE 1023,0 48 24 0,0
15.02.2020 17:00:00 8,4 1,9 7,3 7,0 4,4 4,2 11 6 26 14 SSE 1022,7 65 60 0,0
15.02.2020 16:00:00 8,6 2,9 9,2 7,5 4,1 4,2 10 6 21 12 S 1023,3 53 60 0,0
15.02.2020 15:00:00 8,8 3,0 9,6 8,1 3,6 4,2 10 5 17 9 SSE 1024,0 47 56 0,0
15.02.2020 14:00:00 8,3 2,6 9,6 7,7 3,1 4,2 10 5 19 11 S 1025,0 62 60 0,0
15.02.2020 13:00:00 7,8 2,9 8,4 7,2 2,6 4,2 11 6 21 12 SSE 1025,1 68 60 0,0
15.02.2020 12:00:00 7,4 1,6 7,6 6,0 2,3 4,2 9 5 18 10 S 1026,0 61 60 0,0
15.02.2020 11:00:00 6,7 3,3 7,0 3,9 2,1 4,2 8 4 15 8 SSE 1026,1 36 60 0,0
15.02.2020 10:00:00 3,4 2,2 2,9 1,6 2,2 4,2 8 5 13 7 SSE 1026,9 28 52 0,0
15.02.2020 09:00:00 2,4 1,4 0,6 0,6 2,2 4,2 5 3 7 4 SE 1027,1 16 26 0,0
15.02.2020 08:00:00 1,0 0,9 -2,1 0,6 2,3 4,2 3 2 8 4 E 1027,6 7 0 0,0
15.02.2020 07:00:00 1,5 1,2 -1,4 0,7 2,4 4,2 5 3 6 4 SE 1027,4 7 0 0,0
15.02.2020 06:00:00 1,5 1,2 -1,6 0,7 2,6 4,2 4 2 8 4 SSE 1027,6 11 0 0,0
15.02.2020 05:00:00 1,7 1,6 -1,4 0,8 2,7 4,2 6 3 8 5 SE 1027,6 14 0 0,0
15.02.2020 04:00:00 2,8 1,8 -0,5 1,0 2,9 4,2 5 3 8 5 SSW 1027,8 27 0 0,0
15.02.2020 03:00:00 2,9 1,8 -1,1 1,6 3,0 4,2 5 3 9 5 S 1028,3 49 0 0,0
15.02.2020 02:00:00 3,7 2,1 1,5 2,2 3,0 4,2 8 4 12 6 SSW 1028,7 52 0 0,0
15.02.2020 01:00:00 3,9 2,2 1,5 2,6 3,1 4,2 7 4 13 7 WSW 1028,8 53 0 0,0
15.02.2020 00:00:00 3,9 2,5 2,6 2,9 3,1 4,2 6 4 16 9 W 1028,5 42 0 0,0
14.02.2020 23:00:00 4,1 2,9 2,7 3,0 3,1 4,2 4 2 10 5 W 1028,3 41 0 0,0
14.02.2020 22:00:00 4,1 3,2 3,1 3,1 3,2 4,2 6 3 9 5 SW 1028,3 36 0 0,0
14.02.2020 21:00:00 4,0 3,3 3,1 3,2 3,2 4,3 6 3 10 5 SW 1028,0 34 0 0,0
14.02.2020 20:00:00 3,9 3,4 2,9 3,2 3,2 4,3 5 3 18 10 W 1027,3 27 0 0,1
14.02.2020 19:00:00 4,0 3,4 3,2 3,4 3,2 4,3 9 5 22 12 WNW 1026,4 17 0 0,0
14.02.2020 18:00:00 3,9 3,1 3,2 3,6 3,2 4,3 13 7 24 13 WNW 1025,5 45 0 0,1
14.02.2020 17:00:00 3,9 3,3 3,3 4,0 3,2 4,3 10 5 24 13 WNW 1024,8 48 0 0,1
14.02.2020 16:00:00 4,0 3,0 3,7 4,3 3,1 4,3 19 11 28 15 NW 1024,2 13 0 0,3
14.02.2020 15:00:00 5,4 2,6 4,8 4,4 2,9 4,3 17 9 32 17 W 1023,2 48 0 0,0
14.02.2020 14:00:00 4,8 2,8 4,5 4,0 2,8 4,3 17 9 35 19 W 1023,1 52 0 0,0
14.02.2020 13:00:00 4,7 2,6 3,9 4,1 2,7 4,3 18 10 32 17 W 1023,0 60 0 0,2
14.02.2020 12:00:00 5,0 2,6 5,2 4,4 2,5 4,3 18 10 34 18 W 1022,1 45 0 0,0
14.02.2020 11:00:00 5,2 2,5 4,8 4,4 2,3 4,3 19 11 40 22 W 1020,9 49 24 0,0
14.02.2020 10:00:00 5,0 3,1 4,9 3,3 2,2 4,3 16 9 33 18 W 1019,9 59 16 0,0
14.02.2020 09:00:00 4,2 2,8 3,4 2,7 2,2 4,3 19 11 39 21 W 1019,0 46 0 0,0
14.02.2020 08:00:00 4,2 2,8 3,2 2,5 2,1 4,3 17 9 34 18 W 1017,3 41 0 0,0
14.02.2020 07:00:00 4,0 3,2 3,2 2,5 2,0 4,3 17 9 41 22 W 1015,4 42 0 0,3
14.02.2020 06:00:00 4,0 3,3 3,2 2,4 2,0 4,3 20 11 42 23 W 1013,8 20 0 0,1
14.02.2020 05:00:00 3,7 3,2 3,0 2,2 1,9 4,3 19 10 44 24 W 1012,3 12 0 0,6
14.02.2020 04:00:00 3,2 2,6 2,5 2,2 1,8 4,3 23 13 47 25 WSW 1011,2 10 0 0,6
14.02.2020 03:00:00 3,8 2,7 2,9 2,1 1,8 4,3 19 11 33 18 WSW 1010,1 24 0 0,0
14.02.2020 02:00:00 3,8 2,9 2,9 2,0 1,7 4,3 16 9 28 15 SW 1009,5 50 0 0,1
14.02.2020 01:00:00 3,6 2,9 2,8 1,9 1,6 4,4 14 8 35 19 WSW 1009,0 36 0 0,0
14.02.2020 00:00:00 3,5 2,7 2,7 1,8 1,5 4,4 19 11 37 20 SW 1008,3 39 0 0,1
13.02.2020 23:00:00 3,6 2,7 2,7 1,5 1,5 4,4 22 12 39 21 SW 1008,4 32 0 0,0
13.02.2020 22:00:00 3,6 2,8 2,2 1,4 1,5 4,4 14 8 23 12 WSW 1007,8 75 0 0,0
13.02.2020 21:00:00 3,7 3,0 2,2 1,3 1,5 4,4 12 6 37 20 WSW 1006,7 68 0 0,0
13.02.2020 20:00:00 4,0 3,1 2,6 1,3 1,5 4,4 17 9 50 27 SW 1006,0 55 0 3,0
13.02.2020 19:00:00 4,0 2,3 2,1 1,0 1,5 4,4 7 4 27 14 SSE 1005,3 38 0 0,1
13.02.2020 18:00:00 4,2 2,3 2,2 1,0 1,5 4,4 13 7 42 23 S 1006,2 75 0 1,5
13.02.2020 17:00:00 3,9 1,6 1,9 0,9 1,6 4,4 9 5 35 19 S 1006,9 15 0 0,8
13.02.2020 16:00:00 3,4 1,1 2,0 0,9 1,6 4,4 9 5 23 13 S 1008,9 48 0 0,0
13.02.2020 15:00:00 3,8 0,9 2,7 0,7 1,6 4,4 14 8 30 16 SE 1009,3 48 10 0,0
13.02.2020 14:00:00 3,4 0,4 2,5 0,6 1,6 4,4 15 8 26 14 SE 1011,2 49 16 0,0
13.02.2020 13:00:00 2,2 0,2 1,7 0,7 1,6 4,4 16 9 25 13 SE 1013,3 36 29 0,0
13.02.2020 12:00:00 1,4 -0,5 0,5 0,7 1,6 4,4 13 7 20 11 SE 1015,4 67 54 0,0
13.02.2020 11:00:00 0,4 -0,8 0,0 0,6 1,6 4,4 14 8 19 11 SE 1016,7 30 33 0,0
13.02.2020 10:00:00 -0,7 -1,1 -1,1 0,5 1,6 4,4 10 5 13 7 SE 1018,3 17 0 0,0
13.02.2020 09:00:00 -1,6 -1,6 -5,0 0,5 1,6 4,4 4 2 7 4 ESE 1019,3 3,0 0 0,0
13.02.2020 08:00:00 -2,0 -2,0 -5,6 0,4 1,6 4,4 6 3 9 5 SE 1020,5 0,1 0 0,0
13.02.2020 07:00:00 -1,7 -1,7 -8,3 0,5 1,7 4,4 4 2 8 4 SSE 1020,6 0,1 0 0,0
13.02.2020 06:00:00 -0,8 -0,8 -9,4 0,5 1,7 4,4 5 3 11 6 SSE 1020,6 1,8 0 0,0
13.02.2020 05:00:00 -0,3 -0,3 -4,2 0,6 1,7 4,4 6 4 14 8 SSW 1020,9 10 0 0,0
13.02.2020 04:00:00 0,1 0,0 -1,5 0,6 1,7 4,4 7 4 13 7 SSW 1021,4 13 0 0,0
13.02.2020 03:00:00 0,1 0,0 -1,5 0,5 1,7 4,4 7 4 14 8 SSW 1022,5 16 0 0,0
13.02.2020 02:00:00 0,3 0,1 -1,0 0,5 1,8 4,4 10 6 17 9 WSW 1022,7 29 0 0,0
13.02.2020 01:00:00 0,6 0,2 -1,2 0,5 1,8 4,4 12 7 20 11 WSW 1022,6 35 0 0,1
13.02.2020 00:00:00 0,2 0,2 -0,4 0,5 1,9 4,4 6 4 34 18 SW 1023,0 26 0 0,1
12.02.2020 23:00:00 0,6 0,3 0,0 0,5 1,9 4,4 14 8 27 15 W 1022,4 68 0 0,0
12.02.2020 22:00:00 0,4 0,3 0,0 0,6 2,0 4,4 16 9 28 15 W 1021,9 75 0 0,7
12.02.2020 21:00:00 0,3 0,3 0,0 0,6 2,0 4,4 10 5 21 11 WSW 1021,6 1,9 0 0,6
12.02.2020 20:00:00 0,3 0,3 0,0 0,7 2,1 4,4 13 7 36 19 W 1021,4 62 0 1,8
12.02.2020 19:00:00 0,6 0,4 0,0 0,8 2,2 4,4 21 11 37 20 WSW 1020,4 2,0 0 1,3
12.02.2020 18:00:00 0,4 0,4 0,0 1,1 2,2 4,4 11 6 48 26 W 1020,0 0,9 0 2,2
12.02.2020 17:00:00 2,4 0,1 1,6 1,8 2,1 4,4 19 10 42 23 W 1019,1 50 0 0,1
12.02.2020 16:00:00 1,7 -0,1 0,8 1,9 2,0 4,4 26 14 55 30 W 1018,8 6 0 0,0
12.02.2020 15:00:00 3,6 -1,2 3,2 2,1 1,9 4,4 23 12 53 28 W 1018,0 75 1 0,0
12.02.2020 14:00:00 4,0 -2,0 3,8 1,7 1,9 4,4 23 12 51 28 W 1017,7 52 4 0,0
12.02.2020 13:00:00 3,9 -2,4 3,9 1,1 1,9 4,4 26 14 53 29 W 1017,9 53 4 0,0
12.02.2020 12:00:00 3,3 -2,8 2,5 0,6 1,9 4,4 26 14 58 31 W 1018,2 55 1 0,0
12.02.2020 11:00:00 3,0 -3,5 2,1 0,6 1,9 4,4 29 16 51 28 W 1018,3 51 6 0,0
12.02.2020 10:00:00 2,2 -3,4 1,4 0,6 1,9 4,4 20 11 40 22 WSW 1018,3 58 0 0,0

tt = temperature
td = dewpoint
tt 5cm = temperature 5cm
tt -5cm = temperature -5cm
tt -20cm = temperature -20cm
tt -100cm = temperature -100cm
ff = wind speed
fx = gusts
dd = wind direction
ppp = reduced air pressure
vv = visibility
sd = sunshine duration
rr = precipitation

Next stations